Temp
24 23 23 24 25 26 26 25 25 25 27 27 25 25 23 23 23 23 23 23 24 24 23 24 24 24 24 24 23 23 22 22 21 21 21 20 20 20 20 20 20 20 19 19
22 22 23 25 24 25 26 26 25 25 27 27 25 26 26 22 23 23 23 23 24 24 24 24 24 24 24 24 24 23 23 22 22 21 21 21 21 20 20 20 20 20 20 19
21 25 24 25 25 26 24 25 24 26 25 26 25 25 25 24 23 23 23 24 24 25 25 25 24 25 25 24 24 24 24 23 22 22 21 21 21 20 21 21 20 20 20 19
24 25 25 25 26 24 25 24 25 26 25 23 26 22 23 23 20 21 23 24 24 25 25 25 25 25 25 25 24 24 24 23 23 22 21 21 21 21 21 21 20 20 20 19
24 24 25 25 26 25 25 25 24 25 23 24 24 23 23 20 23 22 21 23 25 25 26 26 26 26 26 26 25 24 24 23 23 22 22 22 21 21 21 21 20 20 19 19
24 25 25 25 26 25 26 24 21 18 19 21 22 23 22 23 23 22 21 23 24 24 26 26 26 26 26 26 25 24 24 24 23 23 22 22 22 21 21 20 20 20 19 19
24 25 26 26 27 25 22 20 20 22 21 21 20 22 23 24 23 22 21 23 24 25 26 26 26 26 26 26 26 25 24 24 23 23 23 22 22 21 21 21 20 20 19 20
22 24 25 25 26 24 23 21 19 23 20 22 19 22 23 22 23 24 25 25 25 26 27 27 27 27 27 26 26 26 25 24 24 24 23 23 22 21 21 20 20 20 20 19
21 24 25 25 25 25 23 23 20 17 16 19 20 21 23 22 23 23 24 24 26 28 27 27 25 26 26 26 26 26 26 24 24 24 24 22 22 22 21 20 20 20 19 19
22 24 26 26 25 24 24 21 22 17 23 24 20 21 21 24 23 21 22 24 27 27 27 27 25 25 26 26 27 26 25 25 25 24 24 23 22 21 21 20 20 19 18 18
20 22 24 25 26 23 23 22 17 17 17 19 21 21 20 23 22 22 22 26 27 27 28 28 26 26 26 26 26 26 26 25 25 25 23 23 22 21 21 20 20 19 19 18
22 18 22 27 25 23 24 23 19 19 22 15 17 21 20 20 21 23 24 25 27 26 27 27 27 27 26 25 26 26 26 26 25 23 21 22 21 21 21 22 21 19 18 18
21 20 21 23 23 24 25 22 17 15 15 17 20 22 21 20 22 25 24 25 25 25 26 26 26 26 26 26 25 25 25 25 23 22 21 21 22 21 22 22 21 19 19 19
23 16 21 21 23 23 25 24 20 20 20 18 18 21 21 19 19 22 27 29 25 24 25 27 26 26 25 26 26 25 25 25 22 21 20 19 22 21 22 21 21 19 19 18
21 22 23 23 23 23 24 23 22 23 21 24 23 21 20 18 18 22 24 24 26 25 24 25 26 26 26 25 26 26 25 25 24 23 23 19 20 21 21 21 21 20 19 17
18 21 23 24 22 24 23 23 22 22 21 21 21 22 20 21 22 22 22 23 23 25 25 23 24 25 27 28 28 27 26 24 23 23 23 19 20 20 21 22 21 19 18 17
20 18 19 23 20 23 23 23 23 21 20 21 23 22 19 21 21 21 22 23 23 23 24 26 26 25 26 25 26 27 27 26 23 20 22 22 21 21 20 21 21 20 18 17
19 17 16 20 21 24 22 19 21 22 20 19 19 20 20 20 22 23 23 24 25 26 26 26 27 27 25 25 25 25 24 24 24 25 22 21 22 22 21 21 20 20 18 17
17 16 17 20 19 21 23 21 20 22 22 19 19 19 21 22 22 22 24 24 25 25 26 27 26 26 25 25 24 24 23 24 23 24 24 24 23 22 21 21 20 20 18 17
16 15 19 16 22 21 21 22 23 22 21 20 19 20 20 22 20 18 24 24 24 25 26 27 28 27 27 24 26 24 23 23 23 25 24 23 23 22 21 21 20 20 18 18
17 16 19 16 20 20 20 22 23 23 21 22 22 21 21 20 21 22 23 24 24 24 25 24 26 27 27 25 26 26 25 24 24 23 23 23 23 22 21 20 20 19 17 17
19 18 18 16 19 23 22 22 23 21 22 23 21 22 22 22 23 23 24 24 24 24 24 25 24 26 26 24 24 25 26 24 23 22 22 22 23 21 21 19 19 18 17 16
20 18 18 18 18 18 20 22 22 23 23 22 22 22 22 22 23 23 24 24 24 24 23 23 23 23 23 23 24 23 22 24 22 23 22 22 22 17 17 16 17 17 16 16
18 17 17 19 19 19 21 22 23 23 23 23 22 23 23 23 22 23 23 24 24 24 23 23 23 23 23 23 22 22 22 22 22 22 22 21 19 17 16 16 16 17 16 16
17 18 16 16 18 20 23 22 23 23 23 22 22 22 23 22 23 23 23 24 24 23 23 22 22 22 23 23 22 21 21 21 21 20 20 18 17 18 16 16 16 17 17 17
18 17 17 17 20 19 21 22 23 23 23 23 22 23 23 22 22 23 23 23 23 23 22 23 22 22 22 21 21 22 21 20 19 18 15 16 17 18 15 15 15 15 16 16
Height
1486 1495 1504 1498 1498 1499 1503 1512 1513 1501 1493 1496 1499 1497 1492 1491 1496 1500 1501 1507 1509 1512 1516 1518 1521 1523 1525 1528 1532 1536 1539 1542 1546 1548 1551 1552 1554 1556 1558 1561 1562 1562 1562 1563
1493 1502 1491 1491 1495 1499 1504 1509 1513 1499 1492 1494 1500 1497 1489 1489 1488 1489 1494 1499 1503 1507 1510 1513 1516 1518 1521 1524 1528 1532 1535 1538 1542 1545 1548 1550 1552 1554 1556 1559 1560 1561 1560 1560
1498 1490 1486 1490 1496 1500 1507 1511 1512 1510 1497 1492 1496 1500 1492 1488 1486 1488 1491 1493 1496 1498 1503 1506 1509 1512 1516 1520 1525 1529 1532 1535 1538 1542 1546 1548 1551 1553 1554 1556 1558 1560 1559 1559
1490 1484 1487 1492 1494 1498 1511 1497 1500 1504 1511 1527 1498 1533 1498 1489 1487 1483 1485 1486 1485 1490 1496 1502 1506 1509 1511 1515 1521 1526 1530 1532 1535 1540 1543 1545 1548 1551 1553 1555 1557 1557 1558 1559
1491 1487 1489 1494 1493 1492 1503 1495 1501 1502 1512 1514 1512 1527 1503 1492 1483 1473 1475 1473 1476 1483 1489 1493 1500 1504 1508 1513 1517 1522 1526 1529 1533 1537 1540 1544 1547 1550 1552 1554 1556 1557 1557 1558
1484 1481 1482 1484 1483 1486 1488 1500 1507 1514 1523 1542 1517 1523 1511 1496 1483 1472 1468 1468 1471 1477 1484 1489 1495 1501 1505 1509 1513 1518 1522 1527 1531 1534 1538 1541 1545 1548 1550 1552 1554 1555 1558 1558
1485 1481 1476 1477 1486 1487 1495 1511 1543 1543 1546 1544 1521 1523 1502 1479 1473 1467 1465 1463 1468 1475 1480 1484 1488 1494 1498 1503 1508 1513 1518 1522 1527 1531 1535 1539 1543 1546 1549 1550 1553 1554 1558 1558
1504 1504 1479 1473 1479 1490 1496 1506 1540 1548 1555 1535 1526 1526 1496 1475 1468 1463 1461 1463 1468 1472 1475 1477 1480 1486 1492 1499 1504 1509 1513 1517 1521 1527 1532 1536 1539 1543 1546 1549 1553 1555 1556 1557
1504 1496 1471 1470 1471 1476 1497 1509 1503 1536 1545 1541 1527 1506 1479 1472 1469 1465 1463 1465 1466 1467 1471 1475 1478 1484 1488 1494 1498 1503 1508 1513 1516 1522 1527 1532 1536 1539 1541 1546 1549 1554 1556 1555
1485 1497 1474 1472 1473 1478 1482 1490 1514 1529 1536 1535 1532 1521 1508 1478 1471 1467 1464 1464 1464 1468 1471 1473 1476 1480 1484 1489 1493 1498 1504 1507 1511 1517 1523 1527 1531 1536 1537 1540 1543 1543 1548 1551
1479 1488 1485 1475 1477 1486 1491 1497 1511 1518 1531 1542 1542 1522 1480 1473 1466 1465 1459 1461 1464 1468 1471 1472 1474 1476 1479 1484 1488 1493 1498 1502 1506 1509 1518 1524 1528 1532 1532 1536 1536 1534 1539 1547
1473 1491 1496 1478 1472 1473 1475 1484 1496 1521 1523 1541 1535 1517 1475 1471 1469 1465 1460 1464 1464 1468 1470 1472 1474 1475 1477 1481 1485 1489 1493 1497 1504 1515 1518 1525 1529 1525 1531 1530 1528 1533 1538 1539
1470 1490 1510 1495 1484 1476 1478 1483 1495 1505 1516 1531 1529 1513 1472 1469 1464 1464 1464 1464 1466 1467 1470 1471 1471 1472 1474 1477 1481 1485 1489 1495 1504 1513 1515 1525 1525 1526 1526 1526 1529 1531 1531 1537
1464 1491 1493 1511 1495 1484 1484 1482 1490 1495 1515 1522 1518 1500 1481 1475 1472 1466 1460 1459 1463 1466 1468 1469 1468 1469 1471 1472 1475 1482 1486 1491 1497 1507 1511 1520 1522 1522 1523 1524 1526 1528 1530 1534
1466 1487 1483 1482 1483 1482 1480 1482 1486 1487 1495 1498 1495 1496 1485 1482 1476 1471 1468 1465 1462 1464 1468 1468 1468 1469 1469 1471 1472 1477 1480 1484 1490 1495 1499 1508 1524 1522 1522 1519 1522 1527 1529 1532
1468 1490 1483 1486 1483 1480 1486 1483 1483 1486 1489 1490 1493 1489 1482 1479 1477 1475 1472 1467 1466 1464 1462 1464 1467 1469 1467 1467 1470 1472 1473 1478 1485 1491 1499 1504 1515 1515 1514 1514 1518 1523 1526 1530
1474 1485 1498 1497 1493 1488 1498 1487 1486 1488 1488 1488 1493 1486 1483 1480 1477 1476 1473 1470 1469 1468 1466 1463 1463 1464 1464 1466 1468 1469 1469 1471 1481 1491 1496 1495 1504 1507 1507 1510 1514 1518 1523 1527
1477 1487 1499 1503 1495 1512 1490 1483 1482 1483 1484 1485 1487 1484 1482 1480 1478 1477 1476 1473 1470 1467 1464 1462 1460 1461 1463 1464 1463 1465 1469 1470 1473 1478 1489 1492 1495 1497 1501 1507 1511 1516 1519 1524
1468 1484 1502 1506 1513 1502 1486 1483 1485 1485 1486 1481 1485 1485 1482 1478 1478 1478 1477 1476 1473 1470 1468 1467 1463 1461 1463 1465 1465 1463 1466 1467 1469 1474 1478 1481 1486 1491 1497 1502 1507 1511 1515 1521
1473 1476 1487 1509 1505 1515 1484 1472 1474 1477 1497 1473 1477 1479 1481 1480 1486 1480 1477 1476 1474 1470 1468 1464 1464 1460 1461 1465 1464 1463 1463 1464 1466 1466 1470 1476 1481 1486 1491 1495 1499 1504 1510 1515
1488 1490 1494 1505 1501 1493 1472 1471 1473 1493 1494 1470 1473 1476 1477 1480 1480 1479 1477 1476 1473 1470 1466 1464 1459 1454 1461 1466 1467 1463 1462 1463 1465 1469 1472 1475 1478 1480 1485 1491 1495 1501 1507 1513
1486 1494 1497 1501 1499 1493 1466 1471 1479 1473 1468 1471 1474 1475 1476 1477 1477 1477 1476 1475 1473 1470 1467 1464 1463 1462 1464 1466 1465 1463 1460 1462 1465 1469 1470 1472 1472 1473 1482 1487 1495 1499 1504 1510
1487 1483 1487 1486 1484 1470 1469 1468 1467 1467 1469 1471 1472 1473 1474 1475 1475 1474 1473 1473 1471 1470 1466 1464 1464 1464 1465 1467 1459 1459 1462 1460 1463 1468 1467 1471 1471 1471 1482 1495 1492 1494 1502 1507
1478 1476 1480 1477 1470 1468 1467 1466 1466 1467 1468 1470 1471 1472 1473 1473 1474 1473 1472 1470 1469 1467 1464 1462 1462 1461 1459 1456 1455 1454 1456 1458 1460 1464 1466 1468 1472 1468 1481 1493 1493 1493 1497 1504
1479 1476 1479 1478 1469 1467 1465 1466 1467 1468 1468 1469 1470 1470 1470 1470 1469 1469 1469 1468 1466 1465 1464 1461 1459 1457 1454 1453 1451 1450 1450 1452 1453 1455 1457 1462 1465 1458 1472 1486 1487 1490 1496 1502
1473 1474 1480 1480 1469 1469 1467 1466 1465 1466 1467 1467 1468 1468 1468 1467 1466 1466 1464 1463 1462 1460 1460 1459 1457 1455 1451 1448 1444 1443 1441 1443 1445 1446 1452 1457 1461 1461 1465 1477 1482 1489 1496 1504
Wind_Speed
2 5 5 7 5 4 4 4 3 5 2 1 6 6 11 24 22 21 25 27 35 39 37 35 33 31 33 32 29 27 27 24 25 21 20 16 15 16 15 13 9 7 8 8
6 4 8 5 7 5 2 2 4 8 4 2 5 5 4 12 24 32 31 31 37 38 37 36 37 33 32 34 32 29 27 28 26 22 18 15 11 16 19 14 11 10 10 5
6 4 5 5 4 4 2 4 4 6 7 3 5 8 4 4 10 19 25 35 39 41 40 38 36 35 32 35 33 31 26 26 27 22 20 18 15 14 15 15 10 9 7 7
4 2 6 3 3 5 3 6 6 3 3 3 2 5 6 4 9 5 20 32 41 43 41 40 39 36 34 32 34 31 28 25 26 25 22 21 17 14 14 13 9 10 6 7
7 6 5 4 6 6 9 6 7 4 4 3 3 3 9 4 9 5 17 35 41 42 42 40 41 36 34 31 34 31 29 27 26 25 23 21 19 16 13 12 12 8 7 5
6 2 5 8 4 8 2 5 5 5 3 2 5 5 7 5 7 8 6 26 35 37 37 38 38 35 34 34 33 34 29 26 26 25 24 23 20 16 13 13 10 11 7 6
5 3 2 4 4 2 6 7 3 3 3 6 2 3 10 5 9 12 10 25 27 25 30 35 38 38 38 38 36 36 31 28 26 23 25 22 21 17 13 13 12 12 7 8
5 5 6 6 8 7 4 8 6 5 4 6 3 5 7 7 17 11 14 16 21 23 24 29 40 39 39 39 40 36 34 30 27 25 24 24 21 18 14 11 10 10 7 8
5 5 4 2 2 8 4 3 5 8 4 2 3 8 8 4 4 5 6 15 22 24 26 29 33 37 36 38 40 40 36 36 27 26 25 25 23 19 14 12 8 10 10 10
5 2 2 2 5 6 5 6 4 3 3 2 5 5 5 5 6 8 9 14 18 16 13 18 25 31 34 38 39 39 38 33 30 27 26 23 25 20 16 12 9 6 12 12
7 3 5 3 3 8 1 0 7 5 4 5 1 6 6 7 8 10 13 19 17 11 12 14 14 18 25 32 37 38 37 36 37 31 29 24 23 25 18 13 15 17 14 10
5 5 2 3 3 1 2 5 6 5 4 1 3 6 6 8 7 12 20 17 19 17 14 13 14 5 22 28 33 34 32 30 32 32 27 27 25 25 15 15 24 14 12 8
7 0 2 7 6 3 2 2 6 6 4 5 5 5 5 10 9 8 12 15 12 10 6 7 17 21 18 25 29 30 28 26 28 24 19 34 31 30 18 13 15 18 16 8
8 3 6 6 6 1 3 2 4 5 4 6 6 6 8 12 9 15 22 22 16 12 8 10 13 16 20 23 23 25 25 19 24 15 10 28 35 27 21 11 13 19 22 10
4 4 0 1 3 2 1 3 7 3 4 3 3 6 6 7 8 12 15 21 26 27 19 14 6 9 11 17 20 22 21 21 23 23 12 38 34 28 22 18 5 15 17 16
3 1 1 4 6 3 5 5 7 4 3 4 3 2 2 6 7 15 25 31 33 33 33 27 17 19 17 15 17 17 19 20 20 24 21 32 40 33 29 23 13 16 16 13
3 5 3 2 4 4 4 2 2 1 2 1 2 2 4 3 5 10 23 26 26 28 28 28 25 25 15 18 21 23 19 14 17 25 31 37 41 34 28 24 20 16 19 15
5 4 3 2 2 1 5 4 3 3 1 3 2 4 4 5 5 9 9 19 20 23 27 27 25 27 29 18 16 17 19 16 17 23 31 33 29 25 27 25 21 18 20 19
3 5 3 4 3 4 5 4 6 5 5 6 4 3 4 5 2 3 15 17 18 16 18 21 26 27 29 26 14 14 16 17 20 25 28 27 25 25 29 27 24 22 23 22
5 6 4 3 4 6 8 4 7 5 3 10 12 6 3 1 2 4 12 14 17 17 20 24 24 22 27 26 23 13 14 18 23 27 30 31 28 27 31 30 29 27 26 24
3 3 4 3 4 6 6 4 9 5 7 11 16 7 4 1 2 8 10 15 17 18 18 19 19 12 20 23 24 19 17 22 23 27 31 33 30 31 34 33 32 30 29 27
4 5 3 2 2 3 8 6 7 5 5 6 6 4 5 7 8 9 11 11 17 20 16 18 12 14 18 20 21 24 19 18 24 29 33 34 31 33 31 37 32 32 30 29
1 4 3 7 5 4 3 1 1 2 3 4 7 4 3 7 13 14 14 12 15 20 17 11 11 13 16 18 18 24 23 17 22 27 27 26 23 17 23 34 35 32 31 31
2 1 1 2 2 3 3 3 2 1 1 4 3 2 5 12 12 13 14 13 17 17 16 12 13 16 18 17 15 19 22 18 21 23 23 20 23 23 30 36 36 31 33 34
4 3 1 4 6 8 9 7 6 4 5 5 5 6 9 14 15 15 17 15 17 12 14 15 16 17 18 18 16 15 20 23 22 24 22 16 27 21 40 43 35 31 30 30
4 4 3 5 5 4 5 7 7 9 9 7 8 8 11 15 16 14 16 19 16 13 12 13 17 19 20 19 14 15 15 17 21 18 15 17 16 14 35 37 34 29 24 24
Wind_Direction
80 95 171 196 172 139 131 160 256 263 260 31 219 253 196 193 195 196 196 201 207 213 219 224 226 228 222 220 218 219 219 215 210 213 219 228 240 239 248 265 269 270 276 300
36 180 212 135 142 121 112 320 287 293 273 165 133 255 239 176 206 200 197 203 210 212 220 225 228 226 225 221 219 220 225 221 215 215 224 233 252 250 249 256 266 269 292 306
148 230 146 160 154 141 156 196 199 250 331 262 12 315 304 229 237 220 211 209 210 215 214 221 222 223 227 224 222 222 222 224 217 217 218 226 233 239 240 244 261 274 282 289
195 204 157 130 207 126 298 202 207 220 64 270 49 276 291 313 282 230 205 210 218 217 221 223 225 225 225 228 222 223 224 224 222 219 219 226 233 246 245 247 253 263 275 288
242 168 157 156 202 145 228 168 200 195 174 72 320 83 271 360 304 253 198 213 218 220 222 225 225 226 226 223 220 220 224 224 224 223 225 229 233 242 243 238 253 263 279 272
212 233 164 198 162 179 121 118 59 55 80 61 247 151 276 250 240 295 212 213 218 217 220 229 229 225 226 221 221 220 221 222 223 224 227 230 233 235 239 233 244 256 265 260
330 243 235 146 113 101 80 58 352 353 360 218 30 99 244 265 265 247 212 218 213 216 219 227 227 221 223 219 218 220 221 222 222 224 227 229 232 234 244 245 255 271 268 267
158 326 176 178 176 173 172 152 158 204 205 251 53 228 252 257 278 277 256 231 207 210 216 222 225 222 220 220 219 219 221 220 222 226 230 230 229 230 240 252 265 271 262 274
142 279 287 198 110 129 168 184 170 102 9 45 262 291 305 326 317 317 213 185 198 215 223 229 228 224 221 222 224 222 224 224 230 224 232 232 227 227 234 244 263 281 264 259
189 353 284 319 118 45 151 156 81 17 135 229 296 286 244 293 266 261 267 225 219 222 235 232 230 225 228 229 228 228 226 231 233 235 232 234 228 223 227 225 229 236 258 257
151 126 275 163 176 165 99 65 51 112 109 154 194 274 216 226 222 223 243 240 247 243 238 242 244 232 229 227 228 231 231 229 231 239 225 227 226 225 224 222 231 218 216 241
192 133 246 212 99 236 157 173 134 124 231 69 145 272 343 307 305 258 260 263 271 272 257 245 224 239 232 230 231 232 232 232 235 238 230 224 237 226 224 223 241 227 213 218
183 198 29 352 358 9 50 162 109 110 96 187 135 264 320 358 342 318 304 314 320 308 295 267 247 251 232 222 228 227 232 231 227 225 246 248 228 221 212 216 265 216 214 226
115 97 151 178 215 180 339 117 122 105 116 168 223 298 320 331 335 338 330 321 330 330 311 307 266 250 231 221 222 227 228 228 211 170 270 244 226 211 210 205 259 240 222 216
106 118 137 149 277 243 180 77 154 128 154 140 207 201 282 299 305 317 334 349 360 3 2 347 306 242 236 223 226 225 232 231 205 203 200 237 237 208 199 202 247 212 204 202
25 124 72 3 13 39 82 42 75 64 138 114 170 258 243 327 39 39 38 33 29 20 13 17 356 315 282 257 250 235 232 225 208 201 169 227 216 207 206 214 231 218 210 212
73 124 87 251 8 5 15 302 277 135 187 136 166 248 350 329 21 42 38 35 29 25 22 17 7 355 338 263 264 245 238 243 210 196 197 194 200 205 205 208 222 213 204 206
113 84 81 175 45 172 245 294 197 126 314 205 235 235 238 266 318 24 26 21 20 20 14 15 13 359 353 321 282 261 245 235 208 205 206 193 199 209 207 207 218 211 204 203
45 118 83 133 148 282 313 189 151 167 246 193 208 247 234 324 121 62 26 2 352 332 349 351 0 0 354 337 309 276 253 241 223 212 205 202 209 211 207 207 212 212 203 198
61 65 114 129 150 189 233 193 168 119 296 201 199 220 163 122 84 261 347 359 357 347 323 319 310 341 343 328 318 290 263 247 233 216 207 205 211 215 209 208 210 208 197 194
32 22 154 162 202 283 246 169 143 118 235 185 206 226 325 69 212 317 346 357 352 347 335 312 318 261 312 312 297 294 275 254 242 225 214 209 213 212 206 206 209 196 191 193
180 150 202 110 112 255 162 113 161 214 144 162 184 217 283 310 335 341 341 353 351 340 327 329 282 275 278 285 274 272 263 259 244 229 220 219 222 213 210 208 197 188 189 193
314 189 194 175 217 276 260 279 211 158 82 119 126 106 20 348 350 344 337 341 337 339 328 327 301 290 277 283 299 278 266 262 249 244 232 246 240 214 237 217 195 184 191 191
282 166 194 32 270 270 281 277 309 341 169 135 140 45 13 347 340 351 341 324 335 333 341 326 314 313 313 310 299 282 264 262 260 252 253 235 213 202 244 222 202 192 190 189
221 360 18 287 292 305 279 275 290 287 251 245 277 308 322 335 318 318 330 318 326 320 324 328 324 315 309 304 296 278 258 247 252 248 245 236 218 228 228 220 200 198 195 193
198 185 149 232 255 223 292 337 305 271 279 290 295 297 312 323 331 313 312 322 316 306 312 313 307 302 296 290 280 268 254 231 235 222 222 233 231 239 198 197 194 192 192 189